Tracking 18785 objects as of 20-August-2017
HD Live streaming from Space Station
objects crossing your sky now

BREEZE-M DEB

Track BREEZE-M DEB now!
10-day predictions


NORAD ID: 34250
Int'l Code: 2006-006BR
Perigee: 510.0 km
Apogee: 14,724.3 km
Inclination: 51.7 °
Period: 274.4 minutes
Semi major axis: 13988 km
RCS: 0.0694 m2 (small)
Launch date: February 28, 2006
Source: Commonwealth of Independent States (former USSR) (CIS)
Launch site: TYURATAM MISSILE AND SPACE COMPLEX (TTMTR)

Note: This is SATELLITE DEBRIS
Your satellite tracking list
Your tracking list is empty





NASA's NSSDC Master Catalog

Two Line Element Set (TLE):
1 34250U 06006BR  17229.64919187 -.00000291  00000-0 -43281-3 0  9997
2 34250  51.7200 356.3199 5080853  68.2862 337.2968  5.24762091185343
Source of the keplerian elements: AFSPC